Location: Dominion City
(49.1330°N, 97.1500°W)
Time: 08:27:23
(UTC-05:00)

Daily predictions for brighter satellites

Satellite Brightness Start Highest point End
(mag) Time Altitude Azimuth Time Altitude Azimuth Time Altitude Azimuth
Cosmos 1544 Rocket 3.6 20:43:59 10° S 20:48:23 82° E 20:52:50 10° NNE
EO 1 Delta rocket 4.1 20:46:06 10° NNE 20:50:40 52° E 20:55:43 10° S
ALOS 2.3 20:46:27 10° SSE 20:51:07 90° E 20:55:50 10° NNW
Helios 1B rocket 3.2 20:49:22 10° N 20:53:28 60° WNW 20:57:31 10° SSW
Cosmos 1975 3.5 20:50:26 10° SSE 20:54:10 35° E 20:57:57 10° NNE
H-2A R/B 2.8 20:50:18 10° SSE 20:54:12 81° ENE 20:58:10 10° N
Cosmos 2208 Rocket 4.1 20:49:25 10° SSW 20:54:42 69° ESE 21:00:07 10° NNE
CZ-4B DEB 3.6 20:53:22 10° S 20:56:35 55° W 20:59:51 10° NNW
Lacrosse 5 rocket 2.2 20:53:36 10° WNW 20:57:08 38° SW 21:00:32 10° SSE
Cosmos 2369 3.8 20:51:50 10° S 20:57:22 57° ESE 21:02:57 10° NE
Cosmos 2298 Rocket 4.2 20:52:16 10° NNW 20:57:34 61° ENE 21:02:49 10° SE
NOSS 7 (E) 4.5 20:54:46 10° SSW 20:58:03 54° SE 21:01:28 10° NE
USA 186 1.5 20:55:41 10° SSE 20:58:43 79° ENE 21:01:34 10° N
Cosmos 1980 Rocket 3.6 20:55:50 10° SE 20:59:20 17° E 21:02:53 10° ENE
Okean 2 4.3 20:55:24 10° NNW 20:59:29 54° W 21:03:32 10° S
Cosmos 1937 Rocket 3.9 20:58:41 10° NNW 21:03:48 48° ENE 21:08:54 10° SE
Iridium 4 Rocket 3.6 20:59:15 10° N 21:04:21 54° E 21:08:58 10° SSE
Envisat 3.6 21:01:20 10° SE 21:06:02 39° ENE 21:10:46 10° N
Cosmos 1570 Rocket 4.1 21:03:50 10° SSW 21:09:08 86° WNW 21:14:27 10° NNE
CZ-2D R/B 4.1 21:11:01 10° S 21:14:49 54° W 21:18:40 10° NNW
Cosmos 990 Rocket 4.5 21:11:12 10° NNW 21:16:17 46° ENE 21:20:54 12° SE
Tiangong 1 2.5 21:14:52 10° WSW 21:17:26 24° S 21:19:22 14° SE
FENGYUN 3A 4.3 21:14:50 10° S 21:20:05 57° W 21:25:23 10° NNW
H-2A R/B 4.0 21:18:43 10° ENE 21:20:44 12° NE 21:22:46 10° NNE
Meteor 1-12 Rocket 4.3 21:15:27 10° S 21:21:11 75° E 21:27:04 10° NNE
Cosmos 2263 Rocket 3.9 21:17:14 10° N 21:21:11 19° NE 21:25:09 10° E
Cosmos 2227 Rocket 3.4 21:18:21 10° NW 21:23:40 42° WSW 21:28:57 10° S
Cosmos 2150 Rocket 4.0 21:18:30 10° NNW 21:23:42 85° ENE 21:28:52 10° SSE
Cosmos 1656 3.8 21:18:19 10° S 21:23:44 53° ESE 21:29:07 10° NE
Cosmos 1825 Rocket 4.0 21:21:51 10° N 21:26:06 42° ENE 21:29:39 14° SE
Cosmos 1500 3.3 21:23:58 10° S 21:27:37 51° E 21:31:18 10° NNE
Cosmos 2173 Rocket 4.3 21:23:30 10° SSE 21:29:30 46° E 21:35:28 10° NNE
Cosmos 1939 Rocket 3.0 21:25:56 10° SSE 21:30:01 63° ENE 21:34:10 10° N
BREEZE-M DEB (TANK) 3.6 21:28:16 10° W 21:31:29 77° SSW 21:39:15 14° ESE
Lacrosse 5 2.1 21:26:57 10° WNW 21:32:00 68° SW 21:36:04 16° SE
Cosmos 2322 Rocket 3.9 21:32:37 12° E 21:32:37 12° E 21:34:22 10° ENE
ERS-1 Rocket 2.9 21:28:59 10° SSE 21:34:01 84° ENE 21:39:04 10° NNW
Cosmos 1605 Rocket 4.3 21:28:03 10° SSW 21:34:23 75° W 21:40:39 10° N
Cosmos 1340 3.2 21:30:48 10° N 21:34:26 41° ENE 21:36:49 19° SE
Cosmos 1953 Rocket 4.1 21:32:10 10° N 21:36:23 40° ENE 21:39:17 18° SE
Cosmos 2297 Rocket 3.2 21:33:36 10° NW 21:38:57 44° WSW 21:44:16 10° S
SPOT 1/Viking Rocket 4.5 21:36:08 17° ESE 21:39:24 32° ENE 21:44:00 10° N
YAOGAN 6 3.6 21:38:51 21° ESE 21:40:37 32° ENE 21:43:58 10° N
Cosmos 1898 Rocket 3.9 21:37:21 10° NNW 21:42:39 66° WSW 21:47:51 10° S
Cosmos 2100 Rocket 4.0 21:36:58 10° S 21:43:07 61° E 21:49:15 10° NNE
YAOGAN 11 4.4 21:38:50 10° S 21:43:20 71° WSW 21:47:47 10° NNW
SPOT 5 3.1 21:39:47 16° SE 21:43:32 52° ENE 21:48:09 10° N
H-2A R/B 2.1 21:40:47 18° SE 21:43:43 58° ENE 21:47:50 10° N
Cosmos 2227 4.3 21:40:13 10° NNW 21:45:59 66° ENE 21:50:02 20° SE
Cosmos 1763 Rocket 4.1 21:41:50 10° SSE 21:46:19 32° ESE 21:50:48 10° NE
PSLV R/B 4.3 21:45:36 25° E 21:46:20 28° ENE 21:49:01 10° N
ATLAS CENTAUR R/B 4.4 21:44:57 10° WNW 21:48:40 21° NNW 21:52:17 10° NNE
Cosmos 1125 Rocket 4.2 21:43:52 10° N 21:48:44 38° ENE 21:51:36 21° ESE
Cosmos 2061 Rocket 4.0 21:44:08 10° S 21:50:20 63° E 21:56:30 10° NNE
RESURS DK-1 2.7 21:49:23 10° NW 21:53:30 63° WSW 21:56:24 18° SSE
Cosmos 2228 4.3 21:54:36 21° E 21:54:59 22° E 21:58:15 10° NE
Cosmos 1758 Rocket 3.7 21:50:56 10° N 21:55:13 52° ENE 21:57:28 25° SE
deb Chang Zheng 4 3.8 21:52:54 10° NNE 21:57:16 49° E 22:00:40 16° S
MetOp-A 4.2 21:54:39 19° SSE 21:58:26 66° ENE 22:03:46 10° N
CZ-4 DEB 4.2 21:55:54 10° SSW 21:58:50 36° W 22:01:48 10° NNW
CZ-4 SHROUD 3.9 21:59:05 33° E 21:59:32 35° ENE 22:02:24 10° N
Cosmos 468 Rocket 3.9 21:56:56 10° SSW 22:02:03 83° ESE 22:07:14 10° NNE
Cosmos 1743 2.6 22:01:45 13° S 22:05:10 78° E 22:09:06 10° NNE
USA 215 3.5 22:03:14 19° ESE 22:08:02 67° NNE 22:14:32 10° NW
Cosmos 841 Rocket 3.8 22:04:54 16° S 22:08:48 44° ESE 22:13:44 10° NE
BREEZE-M DEB (TANK) 2.6 22:08:30 10° W 22:10:42 39° SSW 22:11:27 33° SSE
Cosmos 1814 Rocket 4.0 22:07:16 10° SSW 22:12:37 86° ESE 22:17:57 10° NNE
Terra 3.1 22:11:26 22° E 22:12:46 25° ENE 22:16:35 10° N
Cosmos 1459 Rocket 3.9 22:08:58 10° S 22:15:02 86° W 22:21:12 10° N
Cosmos 1725 Rocket 4.2 22:12:55 23° SSE 22:16:40 51° E 22:22:42 10° NNE
Cosmos 1697 Rocket 2.7 22:13:50 10° SSW 22:19:30 82° WNW 22:25:12 10° NNE
Cosmos 2058 Rocket 3.1 22:22:16 35° SSE 22:23:56 59° E 22:28:24 10° NNE
SL-16 R/B 2.9 22:28:05 31° ESE 22:28:07 31° ESE 22:33:04 10° NE
ASTEX 1 3.3 22:24:04 10° N 22:29:08 86° E 22:32:13 24° S
Cosmos 1842 3.2 22:25:31 10° N 22:29:27 85° W 22:30:34 45° S
NOAA 11 4.1 22:27:55 33° SSE 22:30:28 76° ENE 22:35:58 10° NNW
Cosmos 1606 Rocket 3.6 22:27:25 19° SSW 22:30:36 80° W 22:35:04 10° N
Cosmos 372 Rocket 4.2 22:28:44 10° NNW 22:33:46 53° ENE 22:35:15 40° ESE
BREEZE-M DEB (TANK) 3.4 22:26:42 10° WSW 22:36:57 49° S 22:38:00 41° SE
ARGOS 3.1 22:35:03 36° SSE 22:37:23 84° ENE 22:42:49 10° NNW
Cosmos 1707 4.2 22:36:40 10° NNE 22:39:34 25° ENE 22:39:34 25° ENE
Cosmos 2233 Rocket 4.2 22:39:50 37° SE 22:41:46 49° E 22:47:45 10° NNE
CARTOSAT-1 4.2 22:41:46 39° E 22:42:06 40° ENE 22:46:09 10° N
Cosmos 1980 Rocket 2.2 22:36:53 10° SSW 22:42:34 87° WNW 22:48:20 10° NNE
Cosmos 2360 Rocket 4.1 22:45:50 14° ENE 22:45:50 14° ENE 22:47:15 10° ENE
Cosmos 1666 2.9 22:51:25 51° SW 22:52:11 66° WNW 22:55:59 10° N
Cosmos 1726 Rocket 4.2 22:51:27 22° SSW 22:54:05 54° WNW 22:58:27 10° N
H-2A R/B 1.9 22:58:29 58° SE 22:59:20 71° ENE 23:04:16 10° N
Meteor 2-5 Rocket 3.9 22:53:40 10° N 22:59:35 63° ENE 23:00:57 49° SE
CZ-4B R/B 3.2 22:55:30 10° NNE 23:00:17 75° ESE 23:01:01 61° SSE
Cosmos 1812 Rocket 4.2 23:04:03 41° ENE 23:04:03 41° ENE 23:07:24 10° NNE
Meteor 1-15 Rocket 4.3 23:01:47 29° SSW 23:04:59 82° WNW 23:10:53 10° N
Cosmos 2263 Rocket 2.1 23:00:28 10° NNW 23:06:04 79° ENE 23:07:11 58° SE
SL-08 RB Rocket 4.2 23:11:50 46° SW 23:12:46 55° W 23:17:21 10° NNW
Lacrosse 5 4.0 23:11:22 10° W 23:14:10 15° WSW 23:15:16 14° SW
Cosmos 2322 Rocket 2.0 23:14:22 59° S 23:15:21 73° ESE 23:20:59 10° NNE
Cosmos 2098 Rocket 4.4 23:10:28 14° SSW 23:16:11 57° WNW 23:21:38 10° N
Cosmos 1441 Rocket 4.4 23:13:58 10° N 23:16:47 36° NNE 23:16:47 36° NNE
SPOT 1/Viking Rocket 4.5 23:16:47 31° SW 23:18:40 42° W 23:23:38 10° NNW
Meteor 1-24 Rocket 4.0 23:12:44 10° N 23:18:42 55° ENE 23:19:32 51° ESE
H-2A R/B 4.5 23:17:55 11° SW 23:20:09 16° W 23:22:41 10° NW
IGS 5A 3.6 23:21:14 69° N 23:21:14 69° N 23:24:57 10° NNW
Cosmos 783 Rocket 4.4 23:21:50 70° ESE 23:21:50 70° ESE 23:27:05 10° NNE
GEOS 3 Rocket 4.2 23:17:16 10° NE 23:20:46 40° ENE 23:20:46 40° ENE
Cosmos 405 Rocket 3.6 23:22:10 10° NNW 23:25:20 43° WNW 23:25:20 43° WNW
Cosmos 1464 Rocket 4.2 23:26:06 51° ESE 23:26:32 52° E 23:32:40 10° NNE
Genesis I 3.9 23:23:59 10° NW 23:27:06 52° NNW 23:27:06 52° NNW
Cosmos 2228 4.1 23:31:28 36° WSW 23:32:18 40° WNW 23:36:22 10° N
Cosmos 332 Rocket 3.7 23:34:41 83° WNW 23:34:41 83° WNW 23:39:38 10° NNE
Landsat 7 4.3 23:34:31 48° WSW 23:34:55 49° W 23:39:34 10° NNW
CZ-4C R/B 4.1 23:35:55 54° W 23:35:55 54° W 23:40:08 10° NNW
GP-B 3.3 23:33:42 10° N 23:37:43 68° NW 23:37:43 68° NW
Cosmos 371 Rocket 3.7 23:39:19 55° NE 23:39:19 55° NE 23:43:09 10° NNE
Nadezhda 4 Rocket 4.5 23:32:18 10° N 23:38:21 45° ENE 23:38:55 44° E
Okean 3 Rocket 4.0 23:40:01 10° N 23:43:42 61° NNW 23:43:42 61° NNW
Terra 2.4 23:50:19 49° W 23:50:19 49° W 23:54:54 10° NNW
USA 215 3.4 23:50:35 52° SSW 23:51:12 53° SW 23:57:36 10° WNW
Cosmos 2278 Rocket 3.5 23:48:46 10° NNW 23:53:42 29° NE 23:54:50 27° ENE
